Tracking 19562 objects as of 24-Mar-2019
HD Live streaming from Space Station
objects crossing your sky now

COSMOS 2090

Track COSMOS 2090 now!
10-day predictions
COSMOS 2090 is classified as:


NORAD ID: 20735
Int'l Code: 1990-070A
Perigee: 1,398.2 km
Apogee: 1,418.5 km
Inclination: 82.6 °
Period: 113.8 minutes
Semi major axis: 7779 km
RCS: 1.115 m2 (large)
Launch date: August 8, 1990
Source: Commonwealth of Independent States (former USSR) (CIS)
Launch site: PLESETSK MISSILE AND SPACE COMPLEX (PKMTR)
aabbcc
Your satellite tracking list
Your tracking list is empty




NASA's NSSDC Master Catalog

Two Line Element Set (TLE):
1 20735U 90070A   19083.18925000  .00000029  00000-0  10029-3 0  9995
2 20735  82.5696 170.0948 0013036 326.0944  95.5615 12.65283000322066
Source of the keplerian elements: AFSPC